Погода в Жлобине

Погода в Жлобине : погода сейчас, прогноз погоды и архив. Всё, что Вы хотите узнать о погоде в Жлобине!

Хотите узнать прогноз погоды в Жлобине? Тогда Вам сюда: Погода в Жлобине

Поиск расширенной информации на нашем сайте:

Другие новости

Новости СМИ2

Главная страница сайта

Новости сайта

02.10.2013

Напоминаем, что на нашем новом сайте вы можете получить высокодетализированные прогнозы погоды по пунктам России, СНГ и мира (включающие важные для авиации метеовеличины, такие как направление и скорость ветра, видимость, явления погоды, количество и форма облачности, нижняя и верхняя граница облачности), а также ознакомиться с разнообразными материалами по авиационной метеорологии и подборкой полезных ссылок на эту тему.

Сайт Метеоцентр.Азия посвящён разработке технологий оптимизации авиаметеорологического обслуживания, включая проектирование и перспективное создание нескольких автоматизированных авиаметеорологических систем:
- система выпуска высокодетальных прогностических карт явлений погоды для нижнего воздушного пространства по России и ближнему зарубежью;
- система верификации прогнозов TAF (выпускаемых синоптиками официальных АМСГ РФ и ближнего зарубежья) и AUTOTAF (выпускаемых сайтом Метеоцентр.Азия) - выявление ошибок, онлайн-сопоставление с фактической погодой METAR, автоматическое внесение коррективов в прогнозы при резком отклонении фактической погоды от прогноза, подсчёт оправдываемости прогнозов по элементам и в целом;
- система обработки, анализа и отображения авиаметеорологической информации для применения провайдерами метеорологической информации.


Погода в Жлобине - сегодня

Время (UTC), дата Ветер
(°,м/с) 
Видим.   Явления Облачность Т
(°С)
Тd
(°С)
f(%) Тe
(°С)
Pmin
(гПа)
dP
(гПа)
Po
(мм)
O2
(г/м3)
Тmin Tmax R s Состояние
почвы
09 21.06.17 280 (З) 30000 м    5/5 1000 м 
[Cu hum]
+17.9 +5.9 45 +18  1009.5  0.6  745  281           
12 21.06.17 280 (З) 30000 м    6/6 1000 м 
[Cu med, cong]
+20.3 +7.7 44 +20  1008.3  -0.9  744  278           
15 21.06.17 330 (СЗ) 3{10}  30000 м    4/4 1000 м 
[Cu hum]
+20.7 +10.6 52 +23  1007.7  -0.6  743  277           
18 21.06.17 340 (С) 30000 м    6/4 1000 м средняя 
[Sc|Ac lent]
+16.5 +7.3 54 +17  1008.8  0.9  744  282    +21       
21 21.06.17 330 (СЗ) 25000 м    4/3 1000 м средняя 
[Sc|Ac lent]
+12.6 +8.6 77 +13  1010.5  1.4  745  286           
00 22.06.17 300 (СЗ) 20000 м    3/0 средняя 
[Ac trans]
+10.5 +8.2 86 +11  1010.8  0.2  745  288           
03 22.06.17 310 (СЗ) 17000 м    ясно 
+9.5 +7.8 89 +10  1011.7  0.8  746  289           
06 22.06.17 330 (СЗ) 26000 м    ясно 
+13.8 +5.8 58 +14  1012.5  747  285  +8.6         
09 22.06.17 270 (З) 30000 м    4/4 1000 м 
[Cu med, cong]
+17.1 +9 59 +18  1012.5  0.2  747  282           
12 22.06.17 330 (СЗ) 24000 м    8/8 1000 м 
[Cu med, cong]
+18 +8.2 53 +19  1011.8  -0.6  746  281           
15 22.06.17 300 (СЗ) 27000 м    9/3 1000 м кучево-дожд., средняя, верхняя 
[Cb cap|Ac trans|Ci fib]
+20.1 +12.3 61 +25  1010.5  -1.2  746  277           
18 22.06.17 280 (З) 25000 м    9/0 средняя, верхняя 
[Ac trans|Ci fib]
+17.4 +10.3 63 +20  1010.2  -0.5  745  280    +20.4       
21 22.06.17 320 (СЗ) 25000 м    10/0 средняя 
[Ac und]
+15.6 +8.5 63 +16  1009.9  -0.4  745  282           
00 23.06.17 330 (СЗ) 20000 м  в посл. час ливневой дождь  9/5 600 м кучево-дожд., средняя 
[Cb cap|Ac trans]
+12.8 +8.8 77 +14  1010  745  285      0.0     
06 23.06.17 110 (В) 30000 м    8/0 средняя, верхняя 
[Ac trans|Cc]
+16.8 +9 60 +18  1007.5  -0.7  743  281  +12.1    0.0     
09 23.06.17 120 (ЮВ) 30000 м    8/0 верхняя 
[Ci]
+20.8 +12.1 57 +25  1006.2  -1.1  742  276           
12 23.06.17 130 (ЮВ) 30000 м    10/10 600 м 
[Sc]
+21.8 +13.3 58 +28  1004.8  -1.2  741  274           
15 23.06.17 100 (В) 25000 м    10/10 600 м 
[Sc]
+20.6 +12.6 60 +26  1003.8  -1.1  741  275           
18 23.06.17 100 (В) 24000 м  слаб. ливневой дождь  10/5 600 м кучево-дожд., средняя, верхняя 
[Cb cap|Ac trans|Ci fib]
+18.4 +12.3 68 +25  1004.8  0.8  741  277    +22.4  0.0     
21 23.06.17 060 (СВ) 30000 м  {ливн. осадки}  8/4 600 м кучево-дожд., средняя 
[Cb cap|Ac trans]
+15.9 +11.9 77 +21  1006.2  1.3  742  280      0.0     
00 24.06.17 080 (В) 30000 м  {ливн. осадки}  8/5 600 м кучево-дожд., средняя 
[Cb cap|Ac trans]
+14.2 +10.7 79 +17  1006.8  0.5  743  282           
06 24.06.17 060 (СВ) 30000 м    8/0 средняя, верхняя 
[Ac cast|Cs]
+18 +10.4 61 +21  1008.3  0.7  744  279  +11.9    0.0     
09 24.06.17 240 (ЮЗ) 30000 м    8/3 600 м кучево-дожд., средняя, верхняя 
[Cb cap|Ac lent|Cs]
+21 +11.4 54 +24  1007.8  -0.4  744  276           
12 24.06.17 280 (З) 20000 м  слаб. ливневой дождь  10/8 600 м кучево-дожд., средняя 
[Cb cap|Ac und]
+18.1 +13.3 74 +25  1008.1  0.2  744  278      0.0     
15 24.06.17 240 (ЮЗ) 25000 м  в посл. час ливневой дождь  10/3 600 м кучево-дожд., средняя 
[Cb cap|Ac As]
+16.4 +13.2 81 +24  1007.5  -0.7  743  280         
Время (UTC), дата Ветер
(°,м/с) 
Видим.   Явления Облачность Т
(°С)
Тd
(°С)
f(%) Тe
(°С)
Pmin
(гПа)
dP
(гПа)
Po
(мм)
O2
(г/м3)
Тmin Tmax R s Состояние
почвы

Для получения пояснительной информации подведите курсор к названию столбца.

ПОГОДА в Жлобине - архив

Всё, что Вы хотите узнать о погоде в Жлобине - удобно и подробно!

Выберите нужную дату (начиная с 1 января 2015* года) и нажмите кнопку "Найти".
Будут отображены архивные сводки погоды по пункту Жлобин, начиная с указанной даты.


Отображать данные в формате CSV (для использования в таблицах Excel)


Внимание! Наш архив погоды предназначен исключительно для личного некоммерческого использования в познавательных целях. Если Вам необходимы официальные справки о состоянии погоды (для производственных, юридических, коммерческих и т.п. целей), обращайтесь в органы Росгидромета.

*Примечание: данная дата относится к архиву по метеостанциям СССР (Россия, СНГ, Балтия).
Архив по метеостанциям Зарубежной Европы и Азии (кроме Китая) хранится 10 дней, по другим регионам земного шара (Китай, Африка, Америка, Австралия, Океания) - 1 день.

Жлобин - район местоположения метеостанции


Название, широта, долгота, высота метеостанции:
Жлобин 52.9°ш. 30°д. 142 м над ур. моря [Беларусь]

Дополнительная информация

В oтличие oт бoльшинства пoгoдных сайтoв мы публикуем пoдрoбную метеoинфoрмацию в детальнoм прoфессиoнальнoм фoрмате.

Характеристики температуры и влажнoсти вoздуха измеряются на высoте 2 м в тени вдали oт зданий и деревьев.
Скoрoсть ветра измеряется на высoте 10 м (на урoвне рoста челoвека скoрoсть ветра ниже в 1.5-2 раза). Если метеoстанция нахoдится в гoрoде или в лесу, тo скoрoсть ветра занижена на 2-4 м/с пo сравнению с oткрытым местoм. Скoрoсть ветра над акватoриями крупных рек и oзёр, а также на вершинах хoлмoв на 2-5 м/с выше, чем в oбычных услoвиях.
Атмoсфернoе давление в разных тoчках местнoсти мoжет значительнo oтличаться oт давления на метеoстанции, в зависимoсти oт услoвий рельефа (при пoдъёме на 10 м давление пoнижается примернo на 1 мм рт.ст.).